Location: Marcé
(47.5801°N, 0.3280°W)
Time: 23:46:50
(UTC+01:00)

Transit 2A - Pass Details

Date: 04 December 2021
Orbit: 591 x 967 km, 66.7° (Epoch: 16 January)

Event Time Altitude Azimuth Distance (km) Brightness Sun altitude
Exits shadow 08:18:45 - 326° (NW) 3,670 8.9 -2.8°
Rises 08:18:49 0° 326° (NW) 3,646 8.9 -2.7°
Reaches altitude 10° 08:21:37 10° 335° (NNW) 2,712 8.3 -2.3°
Maximum altitude 08:27:30 37° 41° (NE) 1,458 7.6 -1.5°
Drops below altitude 10° 08:33:16 10° 108° (ESE) 2,650 10.5 -0.7°
Sets 08:35:57 0° 117° (ESE) 3,553 12.2 -0.3°
